Flag for U.S.A. Weather past 2 weeks in Mesquite, Texas, U.S.A.

Now
39 °F

Sunny.


Feels Like: 34 °F
Forecast: 41 / 57 °F
Wind: 7 mph from North

Location: Mesquite Metro Airport

Current Time: Jan 30, 2015 at 8:24:21 AM

Latest Report: Jan 30, 2015 at 7:50 AM


Visibility: 10 mi

Pressure: 30.50 "Hg

Humidity: 70%

Dew point: 30 °F

Location of MesquiteLocation

Historic Weather in Mesquite — Graph

°F

Mesquite temperature yesterday

Maximum temperature yesterday: 68 °F (at 2:55 PM)
Minimum temperature yesterday: 48 °F (at 6:50 AM)
Average temperature yesterday: 56 °F

Past Weeks' High & Low Weather Summary

 TemperatureHumidityPressure
High81 °F (Jan 28, 2:50 PM)100% (Jan 16, 6:50 AM)30.49 "Hg (Jan 16, 6:50 AM)
Low28 °F (Jan 16, 7:50 AM)20% (Jan 18, 2:48 PM)29.93 "Hg (Jan 20, 3:35 AM)
Average48 °F65%30.15 "Hg
* Reported Jan 15 6:50 AM — Jan 30 6:50 AM, Mesquite, Weather by CustomWeather, © 2014

Note: Actual official high and low records may vary slightly from our data, if they occured in-between our weather recording intervals... More about our weather records

Advertising

Mesquite weather history for previous 24 hours

 ConditionsComfort  
Time TempWeatherWind HumidityBarometerVisibility
6:50 AM
Jan 30
41 °FClear.6 mph66%30.48 "Hg10 mi
4:35 AM43 °FClear.6 mph64%30.46 "Hg10 mi
4:15 AM44 °FClear.6 mph62%30.46 "Hg10 mi
3:55 AM44 °FClear.6 mph60%30.46 "Hg10 mi
3:35 AM45 °FClear.7 mph59%30.47 "Hg10 mi
3:15 AM45 °FClear.7 mph58%30.47 "Hg10 mi
2:55 AM46 °FClear.9 mph57%30.47 "Hg10 mi
2:35 AM46 °FClear.9 mph55%30.47 "Hg10 mi
2:15 AM47 °FClear.10 mph55%30.48 "Hg10 mi
1:55 AM47 °FClear.10 mph54%30.47 "Hg10 mi
1:15 AM47 °FPassing clouds.9 mph55%30.47 "Hg10 mi
12:55 AM48 °FPassing clouds.10 mph54%30.47 "Hg10 mi
12:35 AM48 °FClear.12 mph54%30.47 "Hg10 mi
12:15 AM48 °FClear.8 mph54%30.48 "Hg10 mi
11:55 PM
Jan 29
48 °FClear.6 mph54%30.49 "Hg10 mi
11:35 PM48 °FClear.6 mph53%30.49 "Hg10 mi
11:15 PM49 °FClear.7 mph51%30.48 "Hg10 mi
10:55 PM49 °FClear.9 mph51%30.48 "Hg10 mi
10:35 PM50 °FClear.10 mph51%30.47 "Hg10 mi
10:15 PM50 °FClear.8 mph51%30.47 "Hg10 mi
9:15 PM50 °FClear.12 mph52%30.45 "Hg10 mi
8:55 PM51 °FClear.13 mph51%30.44 "Hg10 mi
7:55 PM52 °FClear.10 mph54%30.42 "Hg10 mi
6:50 PM55 °FClear.17 mph47%30.39 "Hg10 mi
5:50 PM57 °FSunny.13 mph39%30.35 "Hg10 mi
4:50 PM63 °FSunny.12 mph37%30.30 "Hg10 mi
3:50 PM64 °FSunny.15 mph37%30.28 "Hg10 mi
2:55 PM68 °FSunny.20 mph30%30.27 "Hg10 mi
1:50 PM66 °FSunny.13 mph35%30.26 "Hg10 mi
12:50 PM66 °FSunny.15 mph35%30.27 "Hg10 mi
11:50 AM66 °FSunny.14 mph32%30.29 "Hg10 mi
10:50 AM64 °FSunny.13 mph37%30.28 "Hg10 mi
9:50 AM61 °FSunny.13 mph45%30.26 "Hg10 mi
8:50 AM52 °FSunny.3 mph77%30.22 "Hg10 mi
Weather by CustomWeather, © 2014

See weather overviewHow to use our weather pages